This demonstration page uses our WeatherBlox Daily Observations layout. Learn more.

Left ArrowRight Arrow

39.92423, -83.80882

Hourly Observations for April 13, 2021

Temp ( °F °C ) Dew Point ( °F °C ) Humidity (%) Winds ( mph kmh ) Pressure ( in mb ) Visibility ( mi km ) Precip ( " mm )
12:56 am 00:56 Clear 47 8.3 44 6.7 90 90 W 7 11 30.01 1016 10 16.0934 0 0
1:56 am 01:56 Clear 46 7.8 43 6.1 89 89 W 8 13 30.03 1017 10 16.0934 0 0
2:56 am 02:56 Clear 46 7.8 43 6.1 89 89 W 8 13 30.04 1017 10 16.0934 0 0
3:56 am 03:56 Clear 44 6.7 42 5.6 93 93 WNW 6 9 30.04 1017 10 16.0934 0 0
4:56 am 04:56 Clear 43 6.1 42 5.6 97 97 W 6 9 30.06 1018 10 16.0934 0 0
5:56 am 05:56 Clear 42 5.6 41 5 96 96 W 8 13 30.07 1018 10 16.0934 0 0
6:56 am 06:56 Mostly Clear 43 6.1 42 5.6 97 97 WNW 8 13 30.09 1019 10 16.0934 0 0
7:56 am 07:56 Sunny 44 6.7 43 6.1 96 96 N 3 6 30.1 1019 10 16.0934 0 0
8:56 am 08:56 Mostly Cloudy 48 8.9 44 6.7 86 86 NNW 5 7 30.12 1020 10 16.0934 0 0
9:56 am 09:56 Cloudy 48 8.9 45 7.2 89 89 W 3 6 30.14 1021 10 16.0934 0 0
10:56 am 10:56 Cloudy 51 10.6 44 6.7 77 77 W 5 7 30.16 1021 10 16.0934 0 0
11:56 am 11:56 Sunny 55 12.8 41 5 59 59 WSW 5 7 30.16 1021 10 16.0934 0 0
12:56 pm 12:56 Sunny 58 14.4 38 3.3 48 48 WSW 6 9 30.14 1021 10 16.0934 0 0
1:56 pm 13:56 Sunny 61 16.1 38 3.3 43 43 WSW 8 13 30.12 1020 10 16.0934 0 0
2:56 pm 14:56 Sunny 62 16.7 39 3.9 43 43 W 13 20 30.11 1020 10 16.0934 0 0
3:56 pm 15:56 Sunny 63 17.2 39 3.9 41 41 WSW 10 17 30.1 1019 10 16.0934 0 0
4:56 pm 16:56 Sunny 64 17.8 39 3.9 40 40 VRB 5 7 30.09 1019 10 16.0934 0 0
5:56 pm 17:56 Partly Cloudy 64 17.8 42 5.6 45 45 WSW 12 19 30.09 1019 10 16.0934 0 0
6:56 pm 18:56 Mostly Sunny 62 16.7 43 6.1 50 50 WSW 8 13 30.09 1019 10 16.0934 0 0
7:56 pm 19:56 Cloudy 60 15.6 45 7.2 58 58 W 6 9 30.09 1019 10 16.0934 0 0
8:56 pm 20:56 Clear 57 13.9 43 6.1 60 60 WSW 5 7 30.1 1019 10 16.0934 0 0
9:56 pm 21:56 Clear 53 11.7 43 6.1 69 69 SW 5 7 30.11 1020 10 16.0934 0 0
10:56 pm 22:56 Partly Cloudy 51 10.6 43 6.1 74 74 WNW 7 11 30.13 1020 10 16.0934 0 0
11:56 pm 23:56 Clear 50 10 42 5.6 74 74 WNW 7 11 30.13 1020 10 16.0934 0 0

Powered by AerisWeather